Tracking 25734 objects as of 28-May-2022
HD Live streaming from Space Station
objects crossing your sky now

YZ-1 R/B

Track YZ-1 R/B now!


NORAD ID: 43210
Int'l Code: 2018-018D
Perigee: 22,182.6 km
Apogee: 22,369.1 km
Inclination: 55.3 °
Period: 804.2 minutes
Semi major axis: 28646 km
RCS: Unknown
Launch date: February 12, 2018
Source: People's Republic of China (PRC)
Launch site: Xichang Space Center, China (XSC)

Note: This is a ROCKET BODY
aabbcc
Your satellite tracking list
Your tracking list is empty




NASA's NSSDC Master Catalog

Two Line Element Set (TLE):
1 43210U 18018D   22143.28881546  .00000036  00000-0  00000-0 0  9991
2 43210  55.3038 116.6595 0032543  89.0128 271.3330  1.79055395 27950
Source of the keplerian elements: AFSPC